Location: Losili
(4.4086°N, 32.7049°E)
Time: 05:52:57
(UTC+00:00)

SL-24 R/B - Pass Details

Date: 18 September 2019
Orbit: 717 x 1116 km, 91.9° (Epoch: 22 October)

Event Time Altitude Azimuth Distance (km) Brightness Sun altitude
Rises 16:49:27 0° 172° (S) 3,168 7.6 -16.3°
Reaches altitude 10° 16:51:41 10° 170° (S) 2,274 6.8 -16.9°
Maximum altitude 16:56:42 78° 84° (E) 814 4.4 -18.1°
Drops below altitude 10° 17:02:11 10° 358° (N) 2,480 7.2 -19.5°
Sets 17:04:41 0° 357° (N) 3,477 8.0 -20.1°
